GW4477 Weather Reports


time (UTC)temp
F
wind
direction
speed
knots
gust
knots
rain 1hr
in
rain 24hr
in
rain mn
in
humidity
%
barometer
mb
20260504050022 60 138 0.0 2.6 0.00 0.00 0.00 36 1007.8
20260504044522 60 89 0.0 1.7 0.00 0.00 0.00 36 1007.9
20260504043008 61 146 0.0 1.7 0.00 0.00 0.00 35 1008.0
20260504041514 61 98 0.0 1.7 0.00 0.00 0.00 32 1008.3
20260504040036 62 159 0.0 1.7 0.00 0.00 0.00 31 1008.3
20260504034524 62 163 0.0 0.0 0.00 0.00 0.00 32 1008.4
20260504033028 63 163 0.0 1.7 0.00 0.00 0.00 32 1008.5
20260504031509 64 163 0.0 1.7 0.00 0.00 0.00 30 1008.4
20260504030016 66 130 0.0 1.7 0.00 0.00 0.00 29 1008.2
20260504024522 68 130 0.9 4.3 0.00 0.00 0.00 27 1008.1
20260504023026 71 53 0.0 1.7 0.00 0.00 0.00 25 1008.0
20260504021528 73 33 0.9 4.3 0.00 0.00 0.00 23 1007.9
20260504020013 74 11 2.6 4.3 0.00 0.00 0.00 21 1008.0
20260504014525 75 360 1.7 4.3 0.00 0.00 0.00 19 1007.7
20260504013025 77 352 1.7 4.3 0.00 0.00 0.00 19 1007.7
20260504011525 78 19 3.5 6.1 0.00 0.00 0.00 17 1007.5
20260504010025 80 46 3.5 8.7 0.00 0.00 0.00 17 1007.4
20260504004515 82 17 3.5 9.6 0.00 0.00 0.00 16 1007.4
20260504003023 84 360 3.5 6.1 0.00 0.00 0.00 12 1007.7
20260504001524 85 326 1.7 3.5 0.00 0.00 0.00 12 1007.8
20260504000028 85 313 0.9 2.6 0.00 0.00 0.00 14 1007.8
20260503234526 85 299 0.9 3.5 0.00 0.00 0.00 14 1007.7
20260503233021 83 33 1.7 6.1 0.00 0.00 0.00 14 1007.9
20260503231505 84 257 3.5 10.4 0.00 0.00 0.00 14 1007.9
20260503230009 85 222 3.5 11.3 0.00 0.00 0.00 12 1008.0
20260503224514 86 212 5.2 10.4 0.00 0.00 0.00 13 1008.2
20260503223003 85 290 3.5 10.4 0.00 0.00 0.00 13 1008.5
20260503221507 85 235 5.2 13.0 0.00 0.00 0.00 14 1008.7
20260503220010 85 222 6.1 13.9 0.00 0.00 0.00 14 1008.9
20260503214511 85 185 4.3 12.2 0.00 0.00 0.00 15 1009.2
20260503213021 84 192 5.2 8.7 0.00 0.00 0.00 14 1009.3
20260503211504 84 230 2.6 7.0 0.00 0.00 0.00 13 1009.6
20260503210006 84 213 2.6 10.4 0.00 0.00 0.00 14 1010.0
20260503204513 85 223 4.3 13.0 0.00 0.00 0.00 14 1010.3
20260503203016 84 200 5.2 12.2 0.00 0.00 0.00 14 1010.6
20260503201520 83 221 4.3 8.7 0.00 0.00 0.00 17 1011.0
20260503200008 84 218 4.3 8.7 0.00 0.00 0.00 15 1011.2
20260503194508 84 279 6.1 13.0 0.00 0.00 0.00 17 1011.3
20260503193034 84 185 3.5 11.3 0.00 0.00 0.00 17 1011.6
20260503191522 84 217 7.0 13.0 0.00 0.00 0.00 16 1011.8
20260503190024 84 242 2.6 14.8 0.00 0.00 0.00 19 1012.1
20260503184512 83 233 3.5 16.5 0.00 0.00 0.00 17 1012.5
20260503183014 82 263 6.1 11.3 0.00 0.00 0.00 18 1012.9
20260503181520 81 254 3.5 13.9 0.00 0.00 0.00 19 1013.4
20260503180026 82 213 7.0 12.2 0.00 0.00 0.00 19 1013.7
20260503174531 80 261 4.3 13.0 0.00 0.00 0.00 21 1014.0
20260503173022 81 225 5.2 11.3 0.00 0.00 0.00 21 1014.5
20260503171522 80 243 4.3 11.3 0.00 0.00 0.00 23 1014.6
20260503081518 49 234 3.5 7.0 0.00 0.00 0.00 57 1017.6
20260503071522 50 212 1.7 4.3 0.00 0.00 0.00 55 1018.3